User: anonymous   Login
Location: Unspecified
(0.0000°N, 0.0000°E)
Time: 06:27:25
(UTC+00:00)
Language:

STSS DEMO 1 (USA 208) - Orbit

View from above orbital plane
View from above orbital plane
View from above satellite
View from above satellite

Ground track
Ground track

The orbit data is extracted from the following two-line orbital elements,

1 35937U 09052A   16132.07644604 0.00000000  00000-0  00000-0 0    00
2 35937  57.9907  31.0941 0015464 227.6728 132.3271 12.79300898    04
Epoch (UTC): 11 May 2016 01:50:04
Eccentricity: 0.0015464
inclination: 57.9907°
perigee height: 1332 km
apogee height: 1356 km
right ascension of ascending node: 31.0941°
argument of perigee: 227.6728°
revolutions per day: 12.79300898
mean anomaly at epoch: 132.3271°
orbit number at epoch: 0

The dashed part of the orbit path shows where the satellite is in the earth's shadow,  

DLR